FW1693 Weather Reports


Display with metric or nautical units.
time (UTC)temp
F
wind
direction
speed
MPH
gust
MPH
rain 1hr
in
rain 24hr
in
rain mn
in
humidity
%
barometer
mb
20260906071546 82 140 2.0 3.0 0.00 0.00 0.00 68 1022.5
20260906070044 82 111 0.0 1.0 0.00 0.00 0.00 68 1022.3
20260906064539 79 260 0.0 2.0 0.00 0.00 0.00 75 1022.2
20260906063006 77 272 1.0 3.0 0.00 0.00 0.00 78 1022.0
20260906061502 75 257 2.0 6.0 0.00 0.00 0.00 79 1022.0
20260906060056 74 267 3.0 5.0 0.00 0.00 0.00 79 1021.9
20260906054604 74 247 4.0 6.0 0.00 0.00 0.00 79 1021.7
20260906053053 76 252 2.0 5.0 0.00 0.00 0.00 76 1021.6
20260906051546 82 108 6.0 10.0 0.00 0.00 0.00 68 1021.5
20260906050015 81 113 8.0 10.0 0.00 0.00 0.00 70 1021.2
20260906044514 81 105 8.0 10.0 0.00 0.00 0.00 69 1021.0
20260906043011 81 120 7.0 10.0 0.00 0.00 0.00 73 1020.9
20260906041511 81 118 8.0 11.0 0.00 0.00 0.00 71 1020.8
20260906040008 81 109 8.0 11.0 0.00 0.00 0.00 76 1020.6
20260906034509 81 85 9.0 11.0 0.00 0.00 0.00 78 1020.5
20260906033037 81 98 9.0 11.0 0.00 0.00 0.00 78 1020.5
20260906031535 81 98 9.0 11.0 0.00 0.00 0.00 79 1020.4
20260906030031 81 80 10.0 12.0 0.00 0.00 0.00 81 1020.4
20260906024530 81 75 10.0 14.0 0.00 0.00 0.00 80 1020.5
20260906023030 81 75 10.0 14.0 0.00 0.00 0.00 80 1020.4
20260906021528 82 63 11.0 14.0 0.00 0.00 0.00 81 1020.3
20260906020029 82 58 11.0 13.0 0.00 0.00 0.00 80 1020.1
20260906014531 81 53 9.0 12.0 0.00 0.00 0.00 81 1019.9
20260906013029 78 41 4.0 9.0 0.00 0.00 0.00 91 1020.0
20260906011522 77 283 1.0 3.0 0.00 0.00 0.00 87 1019.9
20260906010051 77 271 2.0 3.0 0.00 0.00 0.00 86 1019.6
20260906004551 79 244 0.0 0.0 0.00 0.00 0.00 84 1019.6
20260906003047 80 194 0.0 0.0 0.00 0.00 0.00 83 1019.6
20260906001546 80 215 0.0 1.0 0.00 0.00 0.00 81 1019.6
20260906000044 82 105 3.0 4.0 0.00 0.00 0.00 79 1019.8
20260905234550 82 123 3.0 4.0 0.00 0.00 0.00 78 1019.8
20260905233017 82 119 4.0 5.0 0.00 0.00 0.00 77 1019.6
20260905231517 82 108 4.0 5.0 0.00 0.00 0.00 78 1019.8
20260905230100 82 104 5.0 6.0 0.00 0.00 0.00 79 1019.6
20260905224542 82 98 4.0 6.0 0.00 0.00 0.00 79 1019.7
20260905223011 82 102 4.0 6.0 0.00 0.00 0.00 78 1019.7
20260905221513 82 113 5.0 7.0 0.00 0.00 0.00 78 1019.5
20260905220006 82 111 5.0 7.0 0.00 0.00 0.00 78 1019.5
20260905214505 83 113 6.0 8.0 0.00 0.00 0.00 78 1019.4
20260905213005 82 117 6.0 8.0 0.00 0.00 0.00 77 1019.3
20260905211508 82 115 6.0 9.0 0.00 0.00 0.00 77 1019.3
20260905204601 82 117 7.0 8.0 0.00 0.00 0.00 78 1019.2
20260905203103 83 124 7.0 9.0 0.00 0.00 0.00 78 1019.3
20260905201557 83 118 7.0 9.0 0.00 0.00 0.00 78 1019.3
20260905200101 83 127 8.0 9.0 0.00 0.00 0.00 74 1019.0
20260905194550 83 124 8.0 10.0 0.00 0.00 0.00 72 1019.0
20260905193105 83 131 7.0 10.0 0.00 0.00 0.00 73 1018.9
20260905191547 83 133 7.0 10.0 0.00 0.00 0.00 72 1018.8
20260905190043 83 143 7.0 10.0 0.00 0.00 0.00 71 1018.6
20260905184543 83 143 8.0 11.0 0.00 0.00 0.00 71 1018.4
20260905183046 83 145 8.0 12.0 0.00 0.00 0.00 68 1018.1
20260905181541 83 161 9.0 12.0 0.00 0.00 0.00 68 1018.1
20260905180040 83 182 9.0 12.0 0.00 0.00 0.00 66 1017.8
20260905174538 83 162 10.0 13.0 0.00 0.00 0.00 66 1017.7
20260905173042 83 204 10.0 13.0 0.00 0.00 0.00 67 1017.6
20260905171537 84 167 9.0 14.0 0.00 0.00 0.00 67 1017.6
20260905170038 85 150 9.0 13.0 0.00 0.00 0.00 69 1017.5
20260905164513 85 147 10.0 12.0 0.00 0.00 0.00 67 1017.6
20260905163005 85 131 9.0 12.0 0.00 0.00 0.00 67 1017.4
20260905161534 85 146 8.0 12.0 0.00 0.00 0.00 66 1017.2
20260905160034 85 139 9.0 13.0 0.00 0.00 0.00 65 1017.1
20260905154535 85 145 10.0 13.0 0.00 0.00 0.00 66 1017.1
20260905153030 85 157 9.0 13.0 0.00 0.00 0.00 61 1017.0
20260905151531 85 136 8.0 12.0 0.00 0.00 0.00 68 1017.0
20260905150035 86 143 8.0 13.0 0.00 0.00 0.00 61 1016.9
20260905144526 85 168 9.0 12.0 0.00 0.00 0.00 69 1016.9
20260905143025 85 101 7.0 10.0 0.00 0.00 0.00 69 1016.9
20260905141524 86 94 8.0 11.0 0.00 0.00 0.00 65 1016.7
20260905140022 86 81 8.0 12.0 0.00 0.00 0.00 58 1017.0
20260905134549 86 97 10.0 12.0 0.00 0.00 0.00 55 1017.0
20260905133049 88 68 7.0 15.0 0.00 0.00 0.00 46 1017.0
20260905131545 95 289 4.0 9.0 0.00 0.00 0.00 29 1017.0
20260905130045 94 25 5.0 13.0 0.00 0.00 0.00 31 1017.1
20260905124543 94 296 6.0 11.0 0.00 0.00 0.00 30 1017.5
20260905123042 94 297 4.0 10.0 0.00 0.00 0.00 29 1017.6
20260905121538 94 332 3.0 9.0 0.00 0.00 0.00 30 1017.7
20260905120034 94 13 5.0 10.0 0.00 0.00 0.00 29 1017.7
20260905114532 93 247 3.0 10.0 0.00 0.00 0.00 30 1018.0
20260905113030 93 337 3.0 9.0 0.00 0.00 0.00 31 1018.1
20260905111556 92 317 3.0 8.0 0.00 0.00 0.00 31 1018.2
20260905110055 92 322 8.0 11.0 0.00 0.00 0.00 30 1018.1
20260905104550 92 311 5.0 10.0 0.00 0.00 0.00 32 1018.3
20260905103049 91 24 5.0 12.0 0.00 0.00 0.00 34 1018.3
20260905101547 91 300 4.0 10.0 0.00 0.00 0.00 33 1018.1
20260905100044 91 345 6.0 11.0 0.00 0.00 0.00 34 1018.3
20260905094540 90 272 4.0 12.0 0.00 0.00 0.00 34 1018.5
20260905093048 90 317 3.0 8.0 0.00 0.00 0.00 34 1018.5
20260905091536 89 275 2.0 9.0 0.00 0.00 0.00 37 1018.4
20260905090035 88 332 4.0 9.0 0.00 0.00 0.00 39 1018.3
20260905084526 89 336 5.0 9.0 0.00 0.00 0.00 39 1018.2
20260905083022 88 293 2.0 8.0 0.00 0.00 0.00 38 1018.1
20260905081521 88 277 3.0 7.0 0.00 0.00 0.00 39 1017.8
20260905080019 87 269 2.0 7.0 0.00 0.00 0.00 41 1017.7
20260905074542 86 253 4.0 7.0 0.00 0.00 0.00 42 1017.5
20260905073038 84 268 2.0 6.0 0.00 0.00 0.00 47 1017.4